Lamoni, IA

6:58 PM CDT on March 26, 2017 (GMT -0500)
Lamoni Municipal

Weather History for KLWD - October, 2014

Change the Weather History Date:

Saturday, October 18, 2014

  Actual Average Record
Temperature  
Mean Temperature 49 °F 52 °F  
Max Temperature 58 °F 63 °F 81 °F (1965)
Min Temperature 39 °F 42 °F 23 °F (1972)
Degree Days  
Heating Degree Days 16 13  
Month to date heating degree days 195 183  
Since 1 July heating degree days 301 283  
Cooling Degree Days 0 0  
Month to date cooling degree days 1 11  
Year to date cooling degree days 907 944  
Moisture  
Dew Point 41 °F    
Average Humidity 75    
Maximum Humidity 92    
Minimum Humidity 57    
Precipitation  
Precipitation 0.00 in 0.11 in 0.76 in (1984)
Month to date precipitation 3.41 1.53  
Sea Level Pressure  
Sea Level Pressure 30.20 in    
Wind  
Wind Speed 7 mph (North)    
Max Wind Speed 16 mph    
Max Gust Speed 19 mph    
Visibility 10 miles    
Events      
T = Trace of Precipitation, MM = Missing Value Source: NWS Daily Summary

Daily Weather History Graph

Daily Weather History Graph

Search for Another Location

Airport or City:

Trip Planner

Search our weather history database for the weather conditions in past years. The results will help you decide how hot, cold, wet, or windy it might be!

Date:

Astronomy

Oct. 18, 2014 Rise Set
Actual Time 7:29 AM CDT 6:30 PM CDT
Civil Twilight 7:02 AM CDT 6:58 PM CDT
Nautical Twilight 6:30 AM CDT 7:30 PM CDT
Astronomical Twilight 5:58 AM CDT 8:01 PM CDT
Moon 2:27 AM CDT (10/18) 3:52 PM CDT (10/18)
Length of Visible Light 11h 56m
Length of Day
11h 00m
Waning Crescent, 24% of the Moon is Illuminated
Oct 18
Waning Crescent
Oct 23
New
Oct 30
First Quarter
Nov 6
Full
Nov 14
Last Quarter

Hourly Weather History & Observations

Time (CDT) Temp. Windchill Dew Point Humidity Pressure Visibility Wind Dir Wind Speed Gust Speed Precip Events Conditions
12:53 AM 45.0 °F 40.1 °F 39.9 °F 82% 30.10 in 10.0 mi North 9.2 mph - N/A   Clear
1:53 AM 45.0 °F 40.1 °F 39.9 °F 82% 30.10 in 10.0 mi NNW 9.2 mph - N/A   Mostly Cloudy
2:53 AM 43.0 °F 38.2 °F 39.9 °F 89% 30.12 in 10.0 mi NNW 8.1 mph - N/A   Clear
3:53 AM 42.1 °F 38.4 °F 39.0 °F 89% 30.13 in 10.0 mi NW 5.8 mph - N/A   Partly Cloudy
4:53 AM 39.9 °F 35.1 °F 37.9 °F 93% 30.14 in 10.0 mi NW 6.9 mph - N/A   Clear
5:53 AM 39.9 °F 34.5 °F 37.9 °F 93% 30.17 in 10.0 mi NW 8.1 mph - N/A   Clear
6:53 AM 39.9 °F 33.9 °F 37.9 °F 93% 30.18 in 10.0 mi NNW 9.2 mph - N/A   Clear
7:53 AM 39.9 °F 34.5 °F 37.9 °F 93% 30.20 in 10.0 mi NNW 8.1 mph - N/A   Clear
8:53 AM 43.0 °F 36.8 °F 39.0 °F 86% 30.22 in 10.0 mi NNW 11.5 mph - N/A   Clear
9:53 AM 46.9 °F - 41.0 °F 80% 30.25 in 10.0 mi NNW 10.4 mph - N/A   Clear
10:53 AM 51.1 °F - 43.0 °F 74% 30.25 in 10.0 mi North 13.8 mph - N/A   Scattered Clouds
11:12 AM 52.0 °F - 43.0 °F 71% 30.23 in 10.0 mi North 10.4 mph - N/A   Mostly Cloudy
11:53 AM 51.1 °F - 41.0 °F 68% 30.25 in 10.0 mi North 10.4 mph - N/A   Overcast
12:53 PM 53.1 °F - 42.1 °F 66% 30.25 in 10.0 mi North 4.6 mph - N/A   Scattered Clouds
1:02 PM 51.1 °F - 41.0 °F 68% 30.24 in 10.0 mi NNW 5.8 mph - N/A   Mostly Cloudy
1:17 PM 54.0 °F - 42.1 °F 64% 30.23 in 10.0 mi NNE 8.1 mph - N/A   Scattered Clouds
1:53 PM 55.0 °F - 42.1 °F 62% 30.23 in 10.0 mi NW 8.1 mph - N/A   Partly Cloudy
2:53 PM 54.0 °F - 42.1 °F 64% 30.22 in 10.0 mi North 4.6 mph - N/A   Clear
3:53 PM 57.0 °F - 42.1 °F 57% 30.21 in 10.0 mi Variable 4.6 mph - N/A   Clear
4:53 PM 57.0 °F - 42.1 °F 57% 30.20 in 10.0 mi NW 9.2 mph - N/A   Clear
5:53 PM 55.0 °F - 42.1 °F 62% 30.21 in 10.0 mi North 4.6 mph - N/A   Clear
6:53 PM 51.1 °F - 41.0 °F 68% 30.21 in 10.0 mi ENE 3.5 mph - N/A   Clear
7:53 PM 46.0 °F - 39.9 °F 79% 30.23 in 10.0 mi Calm Calm - N/A   Clear
8:53 PM 48.0 °F - 41.0 °F 77% 30.23 in 10.0 mi Calm Calm - N/A   Clear
9:53 PM 48.0 °F - 39.9 °F 74% 30.22 in 10.0 mi East 3.5 mph - N/A   Clear
10:53 PM 46.0 °F 43.1 °F 39.9 °F 79% 30.21 in 10.0 mi ESE 5.8 mph - N/A   Clear
11:53 PM 44.1 °F 41.5 °F 39.9 °F 85% 30.20 in 10.0 mi SE 4.6 mph - N/A   Clear